Temp
16 17 17 18 18 18 18 18 18 18 17 18 18 18 18 18 18 18 18 17 17 17 17 17 17 17 17 17 17 16 16 16 16 16 16 15 15 15 15 15 15 14 14 14 14 14 14 14 14 14 14 14 13 13 14 14 14 14 14 14 13 13 13 13 12 12 13 14 14 14 14 13 14 14 13 14 14 14 14 14 14 14 14 14 14
15 16 17 18 17 18 18 18 18 18 17 17 18 18 18 18 18 18 18 18 18 17 17 17 17 17 17 17 16 16 16 16 16 16 16 16 15 15 15 15 15 15 14 14 14 14 14 14 14 14 14 14 14 13 13 13 13 14 14 13 13 13 13 13 12 12 13 13 13 13 13 13 13 13 13 13 13 13 13 14 14 14 14 14 14
15 16 17 17 16 17 17 17 17 17 17 17 17 17 17 18 18 18 18 18 18 17 17 17 17 17 16 16 16 16 16 16 16 16 16 16 16 15 15 15 15 15 15 14 14 14 14 14 14 14 14 14 14 14 13 13 13 13 13 13 13 13 12 12 12 12 12 12 13 13 13 13 13 13 13 12 12 13 13 13 13 13 13 13 14
15 15 16 16 16 16 17 16 17 17 17 17 17 17 17 17 17 17 18 18 17 17 17 17 17 16 16 16 16 16 16 16 16 16 16 16 16 16 15 15 15 15 15 15 14 14 14 14 14 14 14 13 14 14 13 13 13 13 13 13 13 13 12 12 12 11 11 11 12 12 12 12 12 12 12 12 12 12 12 13 13 13 13 13 13
15 15 16 15 15 15 16 15 15 15 16 16 16 17 17 17 17 16 16 16 17 17 17 17 16 16 16 16 16 16 16 16 15 15 15 16 15 15 15 15 15 15 15 15 15 14 14 14 14 14 14 13 13 14 13 13 13 13 13 13 13 13 12 12 12 11 11 11 11 11 12 12 11 11 11 11 11 11 11 12 12 12 12 13 13
15 16 16 15 15 15 15 15 14 13 14 15 16 17 17 16 16 15 14 15 16 17 16 16 16 16 16 16 16 16 16 16 16 15 15 15 15 15 15 15 15 15 15 15 15 15 15 14 14 14 14 14 13 13 13 13 13 13 13 13 13 13 12 12 12 11 11 11 10 10 11 11 11 11 11 10 10 10 10 11 11 11 11 12 12
16 16 16 15 15 16 16 16 15 15 15 15 16 16 16 16 15 15 14 14 16 16 16 16 16 16 16 16 16 15 16 16 16 15 15 15 15 15 15 15 15 15 15 15 15 15 15 14 14 14 14 14 14 13 13 13 13 13 12 12 12 12 12 12 11 11 11 10 10 10 10 10 10 9 10 10 10 9 9 9 9 10 10 9 10
16 16 16 16 16 16 16 16 16 16 16 16 16 16 16 16 15 14 13 14 15 16 16 16 16 15 15 15 15 15 15 15 15 15 15 15 15 15 14 14 14 14 14 15 15 15 15 14 14 14 14 14 14 14 13 13 13 12 12 12 12 11 11 11 10 10 10 9 9 9 9 9 9 9 9 9 8 8 8 7 7 8 8 8 8
16 16 16 16 16 16 16 16 16 16 16 16 16 16 15 15 15 14 14 15 16 16 16 16 15 15 15 15 15 15 15 15 15 15 15 16 15 15 14 14 14 14 14 14 15 15 15 14 14 14 14 14 14 14 13 13 13 12 12 12 11 11 11 10 10 9 9 9 8 8 8 8 8 7 7 7 7 7 7 7 7 7 7 7 7
16 16 16 16 16 16 16 16 16 16 16 16 16 16 16 16 16 15 16 16 15 15 15 15 15 15 15 15 15 14 14 15 15 15 15 15 15 15 15 14 14 14 14 14 14 15 14 14 14 14 14 14 14 14 14 13 13 13 12 12 11 11 10 10 9 9 8 8 8 7 7 7 7 7 6 7 7 6 7 6 6 6 6 6 7
16 16 16 16 16 16 16 16 16 16 16 16 16 16 16 16 16 16 16 16 15 15 15 15 15 15 15 15 14 14 14 14 14 14 14 14 14 14 14 14 14 14 14 14 14 14 14 14 14 14 13 13 13 13 13 13 13 12 12 11 11 11 10 9 9 8 8 7 7 7 6 6 6 7 6 6 6 6 6 6 5 5 5 5 5
16 16 16 16 16 16 16 16 16 16 16 16 16 16 16 16 16 16 16 16 16 16 16 15 15 15 15 15 15 15 15 15 15 15 14 14 14 14 14 14 13 14 14 14 14 14 14 14 14 13 13 13 13 13 13 12 12 11 11 11 11 10 10 9 9 8 7 7 7 7 6 6 6 6 6 5 5 5 5 5 5 4 4 4 4
16 16 16 16 16 16 16 16 16 16 16 16 16 16 16 16 16 16 16 16 16 16 16 15 15 15 15 15 15 15 15 15 15 15 15 15 14 14 13 13 13 13 13 13 13 14 14 14 13 13 13 13 13 12 12 12 11 11 11 11 11 10 10 9 9 8 8 7 7 7 6 6 5 5 5 5 4 4 4 4 4 4 4 4 4
16 16 16 16 16 16 16 16 16 16 16 16 16 16 16 16 16 15 15 15 15 15 15 15 15 15 15 15 15 15 15 15 15 15 15 15 14 14 14 14 13 13 13 13 13 13 13 13 13 12 12 12 12 12 11 11 11 11 11 10 10 10 9 9 8 8 7 7 7 6 6 6 5 5 5 4 4 4 3 3 3 3 3 3 4
15 15 16 16 16 16 16 16 16 16 16 16 16 16 16 16 15 15 15 15 15 15 15 15 15 15 15 15 15 15 15 15 15 15 15 15 14 14 14 14 13 13 13 13 13 12 13 13 12 12 12 11 11 11 11 11 11 10 10 10 9 9 9 8 8 7 7 7 6 6 6 5 5 5 4 4 4 3 3 3 3 3 3 3 3
15 15 15 15 15 15 15 15 15 15 15 15 16 15 15 15 15 15 15 15 15 15 15 15 15 15 15 14 14 15 15 15 15 15 15 15 15 14 13 13 13 13 12 12 12 12 12 12 11 11 11 11 11 11 10 10 10 10 9 9 8 8 8 7 7 6 6 6 6 5 5 5 5 4 4 4 4 3 3 3 3 3 2 2 2
15 15 15 15 15 15 15 15 15 15 15 15 15 15 15 15 15 15 15 15 15 15 14 14 14 14 14 14 14 14 14 14 14 14 14 14 14 14 13 12 12 12 11 11 11 11 11 11 11 10 10 10 10 10 10 9 9 9 8 8 7 7 7 7 6 6 5 5 5 5 5 4 4 4 4 4 3 3 3 2 2 2 1 1 1
14 14 14 14 14 14 14 14 14 14 14 14 14 14 14 15 15 14 14 14 14 14 14 14 14 14 14 14 14 14 14 14 14 14 14 13 13 13 13 12 11 11 11 10 10 10 10 10 10 10 10 10 10 10 9 9 8 8 7 7 7 6 6 6 5 5 5 5 5 4 4 4 3 3 3 3 3 3 2 1 1 1 1 0 1
14 14 14 14 14 14 14 14 14 14 14 14 14 14 14 14 14 14 14 14 14 14 14 13 13 13 13 13 13 13 13 13 13 13 13 12 12 12 12 12 11 10 10 10 10 10 10 9 9 9 9 9 9 9 8 8 7 7 6 6 6 6 5 5 5 5 4 4 4 3 3 3 3 2 2 2 2 2 2 2 1 1 0 0 0
14 14 14 14 14 14 14 14 14 14 14 14 14 13 13 14 14 13 13 14 13 13 13 13 13 13 13 13 13 12 12 12 12 12 12 11 11 11 11 11 10 10 9 9 9 9 9 9 8 8 8 8 8 8 7 7 6 6 5 5 5 5 4 4 4 3 3 3 2 2 2 2 2 2 2 2 2 2 2 2 2 1 1 0 0
14 14 14 14 14 13 13 13 13 13 13 13 13 13 13 13 13 13 13 13 13 12 12 12 12 12 12 12 12 12 11 11 11 10 10 10 10 11 11 10 10 9 9 8 8 8 8 8 8 7 7 7 7 7 6 6 5 5 5 5 4 4 3 3 3 2 2 2 2 2 2 2 2 2 2 2 2 2 2 2 2 2 1 1 1
14 14 14 13 13 13 13 13 13 13 13 13 13 13 13 13 13 13 12 12 12 12 12 12 12 11 11 11 11 11 10 10 10 9 9 9 10 10 10 9 9 9 8 8 7 7 7 7 7 7 6 6 6 5 5 5 5 5 4 4 4 3 3 2 2 2 2 2 2 2 2 2 2 2 2 2 2 2 2 2 2 2 2 1 1
13 13 13 13 13 13 13 13 13 13 13 12 12 12 12 12 12 12 12 11 11 11 11 11 11 11 10 10 10 10 9 9 9 9 9 9 9 9 9 8 8 8 8 8 7 7 6 6 6 6 5 5 5 5 5 5 4 4 4 3 3 3 2 2 2 2 2 2 1 1 1 1 1 1 1 1 1 1 1 1 1 1 1 1 1
12 12 12 12 12 12 13 12 12 12 12 12 12 12 12 12 12 12 12 11 10 10 10 10 10 10 10 9 9 9 8 8 8 8 8 8 8 8 8 8 8 8 8 7 7 6 5 5 5 5 5 5 4 4 4 4 4 4 3 3 3 2 2 2 2 2 1 1 1 1 1 1 1 1 1 1 1 1 1 1 1 1 1 1 1
12 12 12 12 12 12 12 12 12 12 12 11 11 11 11 11 11 11 11 11 10 10 9 9 9 9 9 9 8 8 7 7 7 7 7 7 7 7 7 7 7 7 7 6 5 5 5 5 5 4 4 4 4 4 4 4 3 3 3 3 2 2 2 2 1 1 1 1 1 1 1 1 1 1 1 1 1 1 0 0 0 0 0 0 0
12 12 11 11 11 11 11 11 11 11 11 11 11 11 11 11 11 11 11 11 10 10 9 9 9 9 9 8 8 7 6 7 7 7 7 7 7 7 7 6 6 6 6 5 5 5 5 4 4 4 4 4 4 3 3 3 3 2 2 2 2 1 1 1 1 1 0 0 0 0 0 0 0 0 0 0 0 0 -0 -0 -0 -0 -0 -0 -0
11 11 11 11 11 10 10 10 10 10 10 10 10 10 10 10 10 10 11 11 10 9 8 8 8 8 8 7 6 6 6 6 6 6 6 6 6 6 6 6 6 5 5 5 5 5 4 4 4 3 3 3 3 3 2 2 2 2 1 1 1 1 1 0 0 0 0 -0 -0 -0 -0 -0 -1 -1 -1 -1 -1 -1 -1 -1 -1 -1 -1 -1 -1
11 11 11 10 10 10 10 10 10 10 9 9 9 9 9 10 10 10 10 10 10 9 8 8 8 8 8 7 5 5 5 6 6 6 6 6 6 5 5 5 5 5 5 5 4 4 4 3 3 3 3 3 2 2 2 1 1 1 1 1 0 0 0 0 -0 -0 -0 -1 -1 -1 -1 -1 -1 -2 -2 -2 -2 -1 -1 -1 -1 -1 -1 -1 -2
10 10 10 10 9 9 9 9 9 9 8 8 8 8 8 9 9 9 9 10 10 10 9 9 9 9 8 7 6 6 5 5 6 6 6 6 6 6 5 5 5 5 4 4 3 3 3 3 3 2 2 2 2 1 1 1 1 0 0 0 -0 -0 -0 -0 -1 -1 -1 -1 -1 -2 -2 -2 -2 -2 -2 -2 -2 -2 -2 -2 -2 -2 -2 -2 -2
9 8 8 8 8 8 8 8 8 8 8 7 7 7 7 8 8 9 9 9 9 9 9 9 9 9 8 7 7 7 6 6 6 6 5 6 5 5 5 5 4 4 4 3 3 3 3 2 2 2 1 1 1 1 0 0 0 -0 -0 -0 -0 -1 -1 -1 -1 -1 -2 -2 -2 -2 -2 -3 -3 -3 -3 -2 -2 -2 -2 -2 -2 -2 -2 -2 -2
8 8 8 8 8 8 8 8 8 7 6 6 6 6 6 6 6 7 8 8 9 9 9 9 8 8 8 7 6 6 6 6 6 5 5 5 5 5 5 4 4 3 3 3 3 3 2 2 2 1 1 1 0 0 -0 -0 -0 -1 -1 -1 -1 -1 -1 -2 -2 -2 -2 -3 -3 -3 -3 -3 -3 -3 -3 -3 -3 -2 -2 -2 -2 -2 -2 -2 -2
8 7 7 7 7 7 7 6 6 6 5 4 4 5 5 5 5 6 7 8 8 8 7 7 7 7 7 7 6 5 5 5 5 5 5 5 5 5 4 4 4 3 3 3 3 2 2 1 1 1 0 0 -0 -0 -0 -0 -1 -1 -1 -1 -2 -2 -2 -2 -3 -3 -3 -3 -3 -3 -3 -3 -3 -3 -3 -3 -3 -3 -2 -2 -2 -2 -2 -2 -2
7 7 6 6 6 5 5 5 5 4 4 3 3 4 4 5 5 5 5 6 6 6 6 6 6 6 6 6 6 6 5 5 5 5 5 5 4 4 4 4 4 3 3 2 2 2 1 1 1 0 0 -0 -0 -0 -1 -1 -1 -1 -1 -2 -2 -3 -3 -3 -3 -3 -3 -3 -3 -3 -3 -3 -3 -3 -3 -3 -3 -3 -2 -2 -2 -2 -2 -2 -2
6 6 5 5 4 4 4 4 4 3 3 3 3 3 4 5 5 5 4 4 4 4 4 5 5 5 5 5 6 6 5 5 5 5 4 4 4 4 4 4 4 3 3 2 2 1 1 0 0 -0 -0 -0 -0 -1 -1 -1 -1 -1 -2 -2 -3 -3 -3 -3 -3 -3 -3 -3 -3 -3 -3 -3 -3 -3 -3 -3 -3 -3 -2 -2 -2 -2 -2 -2 -2
5 4 4 4 4 3 3 3 3 2 2 3 3 3 3 3 4 4 4 3 3 3 3 4 5 5 5 5 5 5 5 5 4 4 4 4 4 4 4 4 3 3 2 2 1 1 0 -0 -0 -0 -0 -1 -1 -1 -1 -1 -1 -2 -2 -2 -3 -3 -3 -3 -3 -3 -3 -3 -3 -3 -3 -3 -3 -3 -3 -3 -3 -3 -2 -2 -2 -2 -2 -2 -2
4 4 4 3 3 3 3 2 2 2 2 2 2 2 2 2 2 3 3 3 2 2 3 3 4 4 5 5 5 5 4 4 4 4 3 3 3 4 4 3 2 2 1 1 1 0 -0 -0 -0 -1 -1 -1 -1 -1 -1 -1 -2 -2 -2 -3 -3 -3 -3 -3 -3 -3 -3 -3 -3 -3 -3 -3 -3 -3 -3 -3 -3 -3 -3 -2 -2 -2 -2 -2 -2
4 3 3 3 3 3 2 2 2 2 2 2 2 2 2 2 2 3 3 3 3 3 3 3 4 4 4 4 4 4 4 4 4 4 3 3 3 3 3 3 2 1 1 0 0 -0 -0 -1 -1 -1 -1 -1 -1 -1 -1 -2 -2 -2 -2 -3 -3 -3 -3 -3 -3 -3 -3 -3 -3 -3 -3 -3 -3 -3 -3 -3 -3 -3 -3 -3 -3 -2 -2 -2 -2
3 3 3 3 3 2 2 2 1 1 1 1 1 1 2 2 2 3 3 3 3 3 3 4 4 4 4 4 4 4 4 4 4 4 3 3 3 3 3 2 2 1 1 0 -0 -0 -1 -1 -1 -1 -1 -1 -1 -1 -1 -2 -2 -2 -2 -3 -3 -3 -3 -3 -3 -3 -3 -3 -3 -3 -3 -3 -3 -3 -3 -3 -3 -3 -3 -3 -3 -3 -2 -2 -2
3 3 3 3 3 2 2 1 1 1 1 1 1 2 2 2 2 3 3 3 4 4 4 4 4 4 4 4 4 4 4 4 3 3 3 3 3 3 2 2 1 1 0 -0 -1 -1 -1 -1 -1 -1 -1 -1 -1 -1 -1 -1 -2 -2 -2 -3 -3 -3 -3 -3 -3 -3 -3 -3 -3 -3 -3 -3 -3 -3 -3 -3 -3 -3 -3 -3 -3 -2 -2 -2 -2
4 3 3 3 3 2 2 2 2 2 2 2 3 3 3 3 3 3 3 4 4 4 4 4 4 4 4 4 4 4 4 3 3 3 3 2 2 2 2 1 1 0 -0 -1 -1 -1 -1 -1 -1 -1 -1 -1 -1 -1 -1 -1 -2 -2 -2 -3 -3 -3 -3 -3 -3 -3 -3 -3 -3 -3 -3 -3 -3 -3 -3 -3 -3 -3 -3 -3 -2 -2 -2 -2 -2
4 3 3 3 2 2 2 3 3 3 3 3 4 4 4 4 4 4 4 4 4 4 4 4 4 4 4 4 4 4 3 3 3 3 2 2 1 1 1 1 0 -0 -1 -1 -1 -1 -1 -1 -1 -1 -1 -1 -1 -1 -1 -1 -2 -2 -2 -3 -3 -3 -3 -3 -3 -3 -3 -3 -3 -3 -3 -3 -3 -3 -3 -3 -3 -2 -2 -2 -2 -2 -2 -2 -2
4 4 4 3 3 2 3 3 3 4 4 4 4 4 4 4 4 4 4 4 4 4 4 4 4 4 4 4 4 3 3 3 3 2 2 1 1 1 0 -0 -0 -1 -1 -1 -1 -1 -1 -1 -1 -1 -1 -1 -1 -1 -1 -1 -2 -2 -2 -2 -3 -3 -3 -3 -3 -3 -3 -3 -3 -3 -3 -3 -3 -3 -2 -2 -2 -2 -2 -2 -2 -2 -2 -2 -2
4 4 4 4 3 3 3 3 4 4 4 4 4 4 4 4 4 4 4 4 4 4 4 3 3 3 4 4 3 3 3 3 2 2 1 1 0 0 -0 -1 -1 -1 -1 -1 -1 -1 -1 -1 -1 -1 -1 -1 -1 -1 -1 -2 -2 -2 -2 -2 -2 -2 -3 -3 -3 -3 -3 -3 -3 -2 -2 -2 -2 -2 -2 -2 -2 -2 -2 -2 -2 -2 -2 -2 -2
4 4 4 4 4 3 3 3 4 4 4 4 4 4 4 4 4 4 4 4 3 3 3 3 3 3 3 3 3 3 3 2 2 1 1 0 -0 -0 -1 -1 -1 -1 -1 -1 -1 -1 -1 -1 -1 -1 -1 -1 -1 -1 -1 -1 -1 -2 -2 -2 -2 -2 -2 -2 -3 -2 -2 -2 -2 -2 -2 -2 -2 -2 -2 -2 -2 -2 -2 -2 -2 -2 -2 -1 -1
4 4 4 4 4 4 4 3 4 4 4 4 3 3 3 4 4 4 4 4 3 2 2 2 3 3 3 2 2 2 2 1 1 0 -0 -0 -1 -1 -1 -2 -2 -1 -1 -1 -1 -1 -1 -1 -1 -1 -1 -1 -1 -1 -1 -1 -1 -1 -1 -1 -1 -1 -2 -2 -2 -2 -2 -2 -2 -2 -2 -2 -2 -2 -2 -2 -2 -2 -2 -2 -2 -1 -1 -1 -1
4 4 4 4 4 4 4 3 4 4 4 4 4 4 4 4 4 4 3 3 2 2 2 2 2 2 2 2 2 1 1 0 0 -0 -1 -1 -1 -2 -2 -2 -2 -2 -1 -1 -1 -1 -1 -1 -1 -1 -1 -1 -1 -1 -1 -1 -0 -0 -0 -0 -1 -1 -1 -1 -1 -1 -2 -2 -2 -2 -2 -2 -2 -2 -2 -2 -2 -2 -1 -1 -1 -1 -1 -1 -1
4 4 4 4 4 4 3 3 3 4 4 3 3 3 3 3 2 2 2 2 2 2 1 1 1 1 1 1 1 0 -0 -0 -1 -1 -1 -2 -2 -2 -2 -2 -2 -2 -1 -1 -1 -1 -1 -1 -1 -1 -1 -1 -1 -1 -1 -1 -0 0 0 -0 -0 -0 -1 -1 -1 -1 -1 -2 -2 -1 -2 -1 -1 -1 -1 -1 -1 -1 -1 -1 -1 -1 -1 -1 -1
4 4 4 4 4 3 3 3 3 3 2 2 2 2 2 1 1 1 1 1 1 1 1 1 0 0 -0 -0 -1 -1 -1 -1 -2 -2 -2 -2 -3 -3 -3 -3 -2 -2 -2 -1 -1 -1 -1 -1 -1 -1 -1 -1 -1 -1 -1 -0 -0 0 0 0 0 -0 -0 -0 -0 -1 -1 -1 -1 -1 -1 -1 -1 -1 -1 -1 -1 -1 -1 -1 -1 -1 -1 -1 -1
4 3 3 3 3 3 3 3 2 2 2 1 1 1 0 0 0 0 0 0 0 0 0 -0 -0 -1 -1 -1 -2 -2 -2 -2 -3 -3 -3 -3 -4 -4 -4 -3 -3 -2 -2 -1 -1 -1 -1 -1 -1 -1 -1 -1 -1 -1 -1 -0 -0 0 0 0 0 0 0 0 -0 -0 -1 -1 -1 -1 -1 -1 -1 -1 -1 -1 -1 -1 -1 -1 -1 -1 -1 -1 -1
3 3 3 3 2 2 2 2 2 1 1 1 0 -0 -0 -0 -1 -1 -1 -1 -1 -1 -1 -1 -1 -1 -2 -2 -2 -3 -3 -3 -3 -3 -4 -4 -4 -4 -4 -3 -3 -2 -2 -2 -2 -1 -1 -1 -1 -1 -0 -0 -0 -0 -0 -0 0 0 0 0 0 0 0 0 0 -0 -0 -1 -1 -1 -1 -1 -1 -1 -1 -1 -1 -1 -1 -1 -1 -1 -1 -1 -1
2 2 2 2 2 1 1 1 1 1 1 0 0 -0 -1 -1 -1 -2 -2 -2 -2 -2 -2 -2 -2 -2 -3 -3 -3 -3 -3 -3 -4 -4 -4 -4 -5 -5 -4 -4 -3 -2 -2 -2 -2 -2 -1 -1 -1 -1 -0 -0 -0 0 0 0 0 0 0 0 0 0 1 1 0 0 -0 -0 -1 -1 -1 -1 -1 -1 -1 -1 -1 -1 -1 -1 -1 -1 -1 -1 -1
Height
794 795 796 796 797 798 801 804 807 811 814 816 816 817 818 819 819 819 819 819 820 820 820 820 820 819 819 819 820 820 821 822 823 824 825 826 827 828 829 829 830 830 830 831 831 832 832 832 833 833 833 833 834 834 834 833 833 833 833 833 833 833 832 832 832 830 829 829 829 829 828 828 827 827 826 825 825 824 824 824 824 824 823 823 822
795 796 797 797 798 798 800 803 806 809 812 814 815 816 817 818 818 819 818 818 819 819 819 819 819 819 819 819 820 820 821 822 822 823 823 824 825 826 827 828 828 829 830 830 831 831 832 832 833 833 833 834 834 834 834 834 834 834 833 833 833 833 833 832 832 831 829 829 828 828 828 827 826 826 825 824 823 823 822 822 822 822 821 821 820
792 795 796 797 798 799 801 803 805 807 810 812 813 814 815 816 817 818 817 817 818 818 818 819 819 819 820 819 819 820 820 821 821 822 822 823 824 825 826 827 827 828 829 829 830 831 831 832 832 833 833 834 834 834 834 834 834 834 834 834 834 834 834 833 833 832 831 829 828 828 828 827 827 826 826 825 824 823 821 821 820 820 819 819 818
791 794 797 799 800 801 802 803 804 806 808 809 811 813 813 814 816 816 816 816 816 817 817 818 818 818 819 819 819 819 819 820 821 821 821 822 823 824 825 825 826 827 827 828 829 829 830 831 831 832 833 833 834 834 834 834 834 834 834 834 834 834 834 834 833 833 832 831 829 828 828 827 827 827 826 825 824 823 822 821 820 819 818 818 817
793 796 798 800 801 802 802 803 805 806 807 807 810 811 811 812 814 815 815 814 814 815 816 816 817 817 817 817 817 818 818 819 820 820 820 821 822 822 823 824 824 825 825 826 827 828 828 829 830 831 831 832 833 833 833 834 834 834 834 834 834 834 834 834 834 833 833 832 830 829 828 827 826 826 826 825 823 822 821 821 820 818 817 817 817
796 797 798 800 802 803 803 803 806 808 807 807 809 809 810 811 813 814 816 815 812 812 814 815 816 816 816 816 816 817 817 817 818 819 819 820 820 821 821 822 822 823 824 824 825 826 827 828 829 829 830 831 832 832 833 833 833 833 834 834 834 834 834 834 833 833 832 832 831 829 828 827 826 825 825 824 823 822 820 819 818 818 817 815 815
796 797 798 800 801 802 802 803 805 806 806 806 808 809 809 810 811 814 816 814 811 811 812 813 814 815 816 816 816 816 816 816 816 817 818 818 819 819 819 820 821 822 823 824 824 824 825 826 827 828 828 829 830 830 831 832 832 833 833 833 834 833 833 833 833 832 832 831 830 829 828 827 826 825 825 824 823 822 820 818 816 815 816 815 814
797 798 799 800 801 801 802 803 804 805 805 805 807 808 809 809 810 812 813 811 810 810 811 812 813 814 814 814 814 814 814 815 815 816 816 816 817 816 817 818 819 820 821 822 823 823 823 824 825 826 827 827 828 829 830 831 831 832 832 833 833 833 833 833 832 832 831 831 830 829 828 827 826 825 824 823 822 821 820 819 817 815 814 813 813
798 799 800 801 801 801 802 803 804 805 805 806 807 808 809 809 808 809 809 808 808 809 810 811 811 812 812 812 812 812 812 813 814 814 815 815 815 814 815 816 816 817 819 820 820 821 821 822 823 824 825 825 826 827 828 829 830 830 831 831 832 832 832 832 832 831 831 830 830 829 828 826 825 824 823 822 822 821 820 820 818 816 814 811 810
800 801 802 803 803 803 803 804 805 806 807 807 808 808 808 808 807 807 807 807 808 808 809 809 809 810 810 810 811 811 811 811 812 812 813 813 813 813 813 814 814 815 816 817 818 819 819 820 821 822 823 823 823 824 825 826 827 828 829 830 830 831 830 831 831 830 830 830 829 828 827 826 825 824 823 822 822 821 820 818 816 814 813 810 808
801 802 803 804 804 804 805 806 806 807 807 808 808 808 808 808 807 807 807 807 808 808 808 808 808 808 809 809 809 809 809 810 810 811 811 811 811 811 811 812 812 813 814 814 815 816 817 818 819 819 820 821 822 823 824 825 825 826 827 828 829 829 829 829 829 829 829 829 828 828 827 826 824 824 823 822 821 820 819 818 816 814 813 811 808
801 802 803 804 804 805 806 806 806 807 807 807 807 807 807 807 807 807 807 807 807 807 807 808 807 808 808 808 809 808 808 809 809 809 809 809 810 810 810 811 811 811 812 812 813 814 814 815 817 817 818 820 821 822 823 824 825 825 826 826 827 827 828 828 828 828 828 827 827 826 826 825 824 823 823 821 820 819 818 817 816 815 813 812 809
802 802 803 804 804 804 805 805 806 806 806 807 807 807 807 807 807 807 807 807 807 807 807 807 807 807 807 808 808 808 808 808 807 808 808 808 808 809 809 809 810 810 810 811 811 812 813 814 814 816 817 818 820 821 822 823 824 824 825 825 825 826 826 826 826 826 826 826 826 825 825 824 823 822 822 821 819 818 816 815 814 813 812 811 808
802 802 803 803 804 804 805 805 805 805 806 806 806 806 806 806 806 806 806 807 807 807 807 807 807 807 807 807 807 807 807 806 806 806 806 806 807 807 808 808 808 808 809 809 810 811 811 812 813 815 817 818 819 819 820 822 822 823 823 823 824 824 825 825 825 825 825 825 824 823 823 823 822 821 820 819 818 817 815 814 812 811 809 808 806
801 802 802 803 803 804 804 804 804 804 805 805 805 805 805 805 806 806 806 806 806 806 807 807 806 806 806 806 806 806 805 805 805 805 805 805 805 805 806 806 806 806 807 807 808 809 810 811 812 814 816 817 818 818 819 820 821 821 821 822 822 823 823 823 823 823 823 823 822 822 821 821 820 819 818 818 816 815 814 813 811 810 807 804 803
801 802 802 803 803 803 804 804 804 804 804 804 805 805 805 805 805 805 805 805 805 805 806 806 805 805 805 805 805 805 805 804 804 804 803 803 803 803 804 805 805 805 806 806 807 809 810 811 812 814 816 817 817 818 819 820 820 820 820 820 820 821 821 821 821 821 821 821 820 820 819 819 818 817 817 816 814 813 812 810 809 808 805 802 800
800 801 802 803 803 803 804 804 804 804 804 804 804 804 805 805 805 805 805 804 804 804 804 804 804 804 804 804 804 804 804 803 803 802 802 802 802 802 802 803 804 805 805 806 808 809 810 812 813 814 815 816 817 817 818 819 819 819 819 819 819 820 820 820 819 819 819 819 818 818 817 817 816 815 814 813 812 810 808 806 806 806 804 801 797
800 800 801 802 803 803 803 803 803 804 804 804 804 804 804 804 804 804 804 804 804 804 803 803 803 803 803 803 803 802 802 802 802 802 801 801 801 801 801 802 804 805 806 807 808 809 810 811 812 813 814 815 816 816 817 818 818 818 818 818 818 818 818 818 818 818 817 817 816 816 815 815 814 813 812 811 810 809 807 804 804 803 802 800 797
799 799 800 801 801 802 802 802 802 803 803 803 803 803 803 803 803 803 803 803 802 802 802 802 802 802 802 802 802 801 801 801 801 801 800 801 801 801 801 802 803 804 805 806 807 808 809 810 811 812 814 814 815 816 816 817 817 817 817 817 817 817 817 816 816 815 815 814 814 813 812 812 811 810 809 809 807 807 805 803 802 801 799 798 796
797 798 798 799 800 800 800 801 801 801 802 802 802 802 803 802 802 802 802 802 801 801 801 801 801 802 802 801 801 801 801 800 800 800 800 801 801 802 802 802 803 804 805 806 807 808 809 810 811 812 813 814 815 815 815 815 816 816 816 816 815 815 815 814 814 813 812 812 811 811 810 809 809 808 807 806 805 804 803 802 801 800 798 796 795
796 796 797 797 798 799 799 800 800 800 801 801 801 802 802 802 802 801 801 800 800 799 800 800 800 800 800 801 801 801 801 801 801 801 801 801 802 802 802 803 803 804 805 806 807 808 809 810 811 812 813 814 814 814 814 815 815 815 814 814 814 813 813 812 812 811 811 810 809 809 808 807 806 806 805 804 803 802 801 800 798 797 796 794 792
794 795 795 796 797 797 798 798 799 799 800 800 800 800 800 800 800 800 800 799 798 798 798 798 799 799 799 800 800 800 801 801 801 802 802 802 803 803 803 804 805 805 806 807 808 809 809 810 811 812 812 812 813 813 813 813 814 813 813 813 813 812 812 811 811 810 809 808 807 806 806 805 804 803 802 801 800 799 798 797 796 794 793 792 790
792 793 793 794 795 795 796 796 797 798 798 798 798 798 798 798 799 798 798 798 798 797 797 797 797 798 798 799 799 800 800 801 801 802 803 803 804 804 804 805 806 806 806 807 808 809 809 810 810 810 811 812 812 812 812 812 812 812 812 812 812 811 811 810 809 809 808 807 806 804 803 802 801 800 799 798 797 796 795 793 792 791 790 788 787
790 791 792 793 793 793 794 794 795 796 796 796 797 797 797 797 797 797 797 796 796 796 796 796 796 796 796 797 798 799 800 800 801 802 802 803 804 804 805 805 806 806 807 807 808 808 809 809 810 810 810 810 810 810 810 810 810 810 810 810 810 810 809 809 808 807 806 805 804 802 801 800 799 797 796 795 794 793 792 790 789 788 786 785 783
789 789 790 791 791 792 792 792 793 794 794 795 795 795 795 795 795 795 795 794 794 795 795 795 795 794 795 796 797 798 799 800 801 801 802 803 803 804 805 805 805 806 807 807 808 808 809 809 809 809 810 809 809 810 810 810 810 810 810 810 809 809 808 807 806 805 804 803 801 800 799 798 796 795 794 793 791 790 789 787 786 785 783 781 780
787 788 788 789 789 790 790 791 791 791 792 792 792 792 793 793 793 793 793 793 792 792 793 793 793 793 794 794 795 797 798 799 800 801 802 802 803 804 804 804 805 806 807 807 808 808 808 809 809 809 809 809 809 809 809 809 809 809 809 809 808 808 807 806 805 803 802 801 799 798 796 795 794 793 791 790 789 787 786 784 782 781 780 778 776
785 786 786 787 787 788 788 788 788 789 789 789 790 790 790 790 790 790 790 790 790 790 791 792 792 792 793 793 795 796 797 798 799 800 801 802 802 803 804 804 805 806 807 807 807 808 808 808 808 809 809 809 809 809 809 809 809 809 808 808 807 806 805 804 803 801 800 798 797 795 794 793 791 790 789 787 785 784 783 781 779 778 777 776 773
783 784 784 785 785 785 786 786 786 786 786 786 786 787 787 788 788 788 788 788 788 788 789 790 790 791 791 792 794 796 798 798 799 799 800 801 802 803 804 805 806 806 806 807 807 807 808 808 808 809 809 809 809 809 809 809 808 808 807 806 805 804 803 802 801 799 798 796 794 793 791 790 788 787 785 784 782 781 780 779 777 775 774 773 770
782 782 782 782 782 783 783 783 783 783 783 783 783 784 784 785 785 785 786 786 786 786 787 787 788 789 789 790 792 794 796 797 798 799 800 801 802 803 804 805 806 806 806 807 807 807 808 808 809 809 809 809 809 809 808 808 807 806 806 805 804 802 801 800 798 797 795 794 792 790 788 787 785 784 782 780 779 778 777 775 774 772 771 770 767
780 780 780 780 780 780 780 780 780 780 780 780 781 781 781 781 782 782 783 783 784 784 784 785 786 787 788 790 791 792 794 796 798 800 801 802 803 804 805 806 806 806 806 807 807 808 808 809 809 809 809 809 809 808 808 807 806 805 804 803 802 800 799 798 796 795 793 791 790 788 786 784 782 781 779 777 775 774 773 772 771 769 768 766 764
778 778 778 778 777 777 777 777 777 777 777 777 778 778 778 778 778 779 779 781 781 782 782 783 784 785 787 789 791 793 795 796 798 800 801 802 803 804 805 806 806 806 807 807 807 808 809 809 809 809 809 809 808 808 807 806 805 804 802 801 800 799 797 796 794 792 791 789 787 785 783 781 780 778 776 774 772 771 770 768 767 766 764 762 760
776 776 775 775 774 774 774 774 774 774 774 774 775 775 776 776 776 777 777 778 779 780 781 782 782 784 786 788 790 792 795 796 798 800 801 802 804 805 806 806 806 806 807 807 807 808 809 809 809 809 809 809 808 807 806 805 804 803 802 800 798 796 794 793 791 789 788 786 784 782 780 778 776 774 773 771 769 767 766 764 763 762 760 759 757
773 773 772 772 772 772 772 772 771 771 771 771 772 773 773 774 774 775 776 777 778 779 781 782 783 784 786 788 790 792 795 796 798 799 801 803 804 805 805 806 806 807 807 807 808 809 809 809 809 809 809 808 807 807 806 805 804 802 800 798 796 794 792 790 788 787 785 783 781 779 777 775 773 771 769 768 766 764 762 761 759 758 757 755 753
771 771 771 771 771 771 770 770 769 769 768 769 769 770 771 772 772 773 774 776 778 780 781 783 785 786 787 790 792 793 795 797 798 800 802 803 805 805 805 806 806 807 807 808 808 809 809 809 809 809 808 808 807 806 805 804 802 801 799 797 795 792 790 788 786 784 782 780 778 776 774 772 770 768 766 764 762 761 759 757 756 755 753 751 750
770 770 770 770 770 770 769 768 767 767 767 766 767 768 770 771 771 772 773 775 777 780 782 784 786 788 789 791 793 794 796 797 799 801 803 804 804 805 805 806 806 807 807 808 808 809 809 809 809 808 808 807 807 805 804 803 801 799 797 795 792 790 788 786 784 781 779 777 775 773 771 768 767 765 763 761 759 757 755 754 752 751 749 748 746
770 771 771 771 770 770 769 768 767 767 766 766 767 768 769 771 771 772 774 776 778 781 783 785 787 789 791 793 794 795 797 799 800 802 803 804 804 805 805 805 806 807 808 808 809 809 809 808 808 808 807 807 806 805 803 802 799 797 795 793 791 789 786 784 781 779 776 774 772 769 767 765 763 761 759 757 755 753 752 750 749 747 746 744 743
771 771 772 771 771 770 769 769 768 768 768 767 768 769 770 772 773 774 776 778 780 783 785 786 788 790 792 794 796 797 798 800 801 802 803 804 804 804 805 805 806 807 807 808 808 808 808 808 808 807 806 806 805 803 802 800 798 796 794 792 789 787 784 781 779 776 773 771 768 766 764 762 760 758 756 754 752 750 748 747 745 743 742 741 740
772 772 772 772 772 771 771 771 771 771 770 770 771 772 773 774 775 777 779 780 782 784 786 787 789 790 792 794 796 798 799 801 802 802 803 803 804 804 804 805 806 806 807 808 808 808 808 807 807 807 806 805 804 802 800 798 796 794 792 790 787 785 782 779 776 773 771 768 766 763 761 759 756 755 753 751 748 746 745 743 742 740 738 737 736
772 773 773 773 773 773 773 773 773 773 774 774 775 776 776 777 778 779 780 782 783 785 787 789 791 792 793 795 797 798 799 800 801 802 802 803 804 804 804 805 806 806 807 807 808 807 807 807 807 806 805 804 802 800 799 797 795 793 791 788 785 782 779 777 774 771 768 766 763 761 758 756 754 752 750 747 745 743 741 740 738 736 735 734 732
773 774 774 774 775 775 775 775 775 776 776 778 778 779 779 779 780 781 782 783 785 786 788 790 792 793 794 796 797 798 799 800 800 801 802 803 803 804 805 805 806 806 807 807 807 807 806 806 806 805 804 802 801 800 798 796 794 791 789 786 784 780 777 775 772 769 766 764 761 758 756 753 751 749 746 744 742 740 738 736 734 733 731 730 729
774 774 775 775 776 776 776 777 777 777 778 779 780 780 781 782 782 783 785 786 787 788 790 792 793 794 795 796 797 798 798 799 800 801 802 803 803 804 805 805 806 806 807 807 806 806 806 806 806 804 803 801 800 799 797 795 792 790 787 785 782 779 776 773 770 767 764 762 759 756 753 751 748 746 744 741 739 737 735 733 731 729 728 726 725
775 775 776 776 777 778 778 778 778 778 779 780 780 781 782 783 784 786 787 788 789 790 791 792 793 794 794 795 797 798 798 799 800 801 802 803 804 804 805 805 806 807 807 806 806 806 806 806 805 803 802 801 799 798 796 793 791 788 786 783 780 777 774 771 769 766 763 760 757 754 751 749 746 744 741 739 736 734 732 730 728 726 725 723 722
776 776 777 778 778 779 779 779 779 779 779 780 781 782 783 784 785 787 788 789 790 790 791 792 793 794 795 796 797 798 799 800 801 802 803 804 804 805 805 806 806 806 806 806 806 807 806 805 804 803 802 800 799 797 795 793 790 787 785 782 779 776 773 770 767 764 761 758 755 753 750 747 744 742 739 737 734 732 729 727 725 723 722 721 720
777 777 778 779 779 780 780 780 780 780 780 780 781 782 783 784 786 788 789 790 790 791 792 792 793 794 796 797 798 799 800 801 802 803 803 804 805 805 806 806 806 806 806 806 807 806 805 804 803 802 801 800 798 796 794 792 789 786 784 781 778 775 772 769 766 763 760 757 754 751 748 746 743 740 738 735 733 730 727 725 723 721 720 719 718
778 779 779 780 780 781 782 782 782 782 782 782 782 783 785 786 787 788 789 790 791 792 793 794 795 796 797 798 799 800 801 802 803 803 804 805 805 805 806 806 806 806 806 806 806 806 805 804 803 801 800 798 797 795 793 791 788 785 783 780 777 775 772 769 766 763 760 757 754 751 748 745 742 740 737 734 732 729 726 724 722 720 718 717 716
779 780 780 781 782 782 783 784 784 784 784 784 784 785 786 787 789 790 791 792 793 794 795 796 796 797 798 799 800 801 802 802 803 804 804 804 805 805 805 805 805 806 806 806 806 805 804 803 801 800 799 797 795 794 792 789 787 785 782 780 777 775 772 769 766 763 760 757 754 750 747 745 742 739 737 734 731 729 726 724 722 720 718 717 716
780 781 782 782 783 784 784 785 785 785 785 786 786 787 788 789 790 792 793 794 795 795 796 797 798 799 800 800 801 802 803 803 804 804 804 804 804 805 805 805 805 806 806 806 805 805 803 802 801 799 798 797 795 793 791 789 786 784 782 779 777 775 772 769 766 763 760 757 754 751 748 745 742 739 737 734 731 729 726 724 722 720 718 717 716
781 782 783 784 785 785 786 786 787 787 787 788 788 789 790 791 792 793 794 795 796 797 798 798 799 800 801 801 802 803 803 804 804 804 804 804 804 804 805 805 805 805 805 805 805 804 802 801 800 799 798 796 794 793 791 788 786 783 781 779 777 774 772 769 766 764 760 757 754 751 748 745 742 740 737 734 732 729 727 725 723 721 719 718 717
783 784 785 786 786 787 788 788 788 789 790 790 791 792 793 793 794 795 796 797 797 798 799 800 800 801 802 802 803 804 804 804 804 804 804 804 804 804 805 805 805 805 805 804 804 803 802 801 800 799 797 796 794 792 790 788 786 783 781 778 776 774 772 769 767 764 761 758 755 752 749 746 743 740 738 735 733 731 728 726 724 722 721 719 718
784 785 786 787 787 788 789 790 790 791 792 792 793 794 795 796 796 797 797 798 799 799 800 801 801 802 803 803 804 804 804 805 805 805 805 805 804 804 805 805 805 805 804 804 803 802 801 800 800 798 797 795 794 792 790 788 786 783 780 778 776 774 772 769 767 764 761 758 755 752 749 746 744 741 739 736 734 731 729 727 726 724 722 721 720
786 787 788 789 789 790 791 792 792 793 794 794 795 796 797 798 798 799 799 800 800 801 801 802 802 802 803 804 804 805 805 805 805 805 805 805 805 805 805 805 804 804 804 803 802 802 801 800 799 798 797 795 794 792 790 788 786 783 781 778 776 774 772 769 767 764 761 759 756 753 750 747 744 742 739 737 735 733 731 729 727 726 724 723 722
Wind_Speed
23 20 20 17 15 19 22 22 21 18 19 23 24 23 23 23 22 21 20 21 21 20 20 18 16 15 14 13 11 11 10 9 8 8 7 8 8 7 7 6 5 5 5 4 3 2 4 3 0 1 1 1 1 2 3 3 4 5 4 4 6 5 6 6 4 7 10 11 13 15 16 17 17 18 19 19 17 16 14 13 12 13 14 14 14
19 18 20 17 13 16 21 21 21 20 20 23 24 23 22 22 23 21 20 20 21 21 21 19 18 17 15 14 13 12 11 10 9 9 9 10 10 10 10 9 9 8 8 8 6 4 4 5 3 2 2 2 1 2 2 2 4 5 5 4 6 7 7 8 7 7 12 15 16 17 18 19 19 19 20 21 20 19 17 16 16 16 16 16 15
18 18 19 17 12 14 18 19 21 20 18 18 18 18 18 19 20 21 19 19 20 22 22 21 20 18 17 16 15 14 13 12 11 11 10 10 11 12 12 11 11 11 11 11 10 8 7 6 6 5 5 3 2 2 1 1 3 4 4 4 6 7 8 10 10 8 11 15 17 18 19 19 19 20 20 19 19 19 19 18 17 17 16 16 16
15 18 19 16 12 12 15 16 17 18 18 17 14 14 16 17 17 16 16 17 17 19 21 21 21 20 19 19 18 17 16 15 15 14 13 13 12 12 13 13 13 14 13 13 13 12 11 9 8 7 7 5 3 3 2 2 3 3 3 4 5 7 8 9 10 9 10 13 17 18 18 19 19 19 18 18 18 18 18 18 18 17 16 15 15
16 20 20 16 11 9 10 11 11 11 14 16 15 13 14 15 16 14 13 14 15 15 16 18 20 21 21 21 20 19 17 17 18 18 18 17 16 15 15 15 16 16 16 16 15 15 14 13 11 9 9 8 6 5 4 3 5 5 5 7 7 8 9 10 11 11 12 14 17 19 19 19 19 18 17 19 20 20 20 18 17 18 18 16 15
18 19 17 13 10 9 9 9 10 9 9 10 13 14 13 14 16 15 15 14 13 12 12 13 16 19 20 20 20 18 17 16 17 19 20 20 19 18 18 19 19 19 19 18 17 17 17 16 14 12 12 10 8 7 6 6 6 6 7 8 9 10 11 12 13 13 14 15 15 17 19 20 20 20 20 21 21 21 22 22 20 19 21 22 20
14 15 14 13 13 15 14 11 10 10 8 7 9 12 14 14 13 14 17 17 13 12 12 12 13 15 16 18 18 17 17 17 17 18 19 20 20 20 21 22 22 22 21 20 19 18 18 17 17 15 14 13 11 9 8 8 8 7 8 8 8 10 13 14 14 14 14 15 15 16 18 20 20 20 21 21 20 20 23 25 25 25 26 26 25
11 11 10 10 12 13 13 11 9 9 8 9 10 12 15 15 14 15 16 15 12 12 13 13 13 12 12 13 14 16 18 19 19 19 19 19 19 19 20 22 24 24 24 23 23 21 19 19 18 18 17 16 13 11 10 9 8 8 8 8 8 11 13 12 13 13 13 14 15 15 18 20 20 21 23 23 22 22 24 24 25 28 29 29 28
12 11 9 8 7 6 6 7 5 4 5 8 10 12 13 12 12 11 11 10 10 12 13 14 14 13 13 13 14 15 17 19 20 20 20 21 22 21 20 22 24 26 26 26 25 25 22 20 20 19 19 18 16 14 12 10 9 9 9 8 9 11 12 11 11 11 12 14 15 16 18 20 21 22 23 23 21 23 25 23 23 26 30 31 30
12 11 10 9 7 5 6 6 5 5 5 6 7 8 8 7 7 6 6 7 8 10 11 12 12 12 13 14 14 15 17 18 19 19 20 20 22 22 22 22 24 26 26 26 27 26 24 23 22 21 21 20 19 17 15 11 10 10 10 10 11 11 11 10 10 10 11 13 14 15 16 19 21 21 22 23 23 24 25 24 24 27 28 28 29
9 9 8 8 6 5 6 7 5 4 4 4 4 3 3 2 2 2 2 3 4 5 7 8 9 9 10 10 11 13 14 16 17 17 17 18 20 20 21 22 23 24 24 25 27 27 26 24 23 23 23 22 20 17 14 11 10 10 10 10 11 11 10 9 10 11 12 12 14 15 15 18 21 22 22 23 23 22 23 24 25 26 24 20 20
6 6 6 6 5 5 5 5 4 3 4 4 3 3 3 3 3 3 3 3 3 3 3 5 6 8 9 10 10 10 10 10 11 13 14 15 17 19 20 21 21 20 20 22 25 26 26 25 24 25 25 23 20 16 12 10 10 9 9 9 10 10 10 10 11 11 11 12 14 16 16 17 20 21 20 20 21 21 23 24 23 22 22 20 19
4 3 3 4 4 3 3 3 3 3 3 4 4 4 4 4 4 5 5 5 4 5 5 5 6 7 8 9 10 11 11 10 9 10 11 11 13 15 17 18 19 20 20 20 21 24 26 27 26 26 23 20 17 13 11 11 10 10 10 10 11 11 12 12 11 11 11 12 14 16 17 17 17 19 18 18 19 21 22 23 22 21 21 21 23
3 1 1 2 2 2 1 0 0 0 1 1 1 1 2 3 4 5 6 6 6 6 6 7 8 8 9 9 9 10 11 11 12 12 11 11 11 12 13 15 16 17 19 20 21 23 26 27 26 23 19 16 14 13 12 12 11 11 11 12 12 12 12 11 11 11 12 13 14 16 16 16 16 18 18 17 17 18 19 21 22 22 23 25 27
5 3 2 1 1 0 2 3 3 3 2 2 3 3 4 5 5 6 7 7 7 7 7 8 8 9 10 10 10 11 11 11 13 14 13 12 12 11 11 12 13 14 16 20 21 23 25 25 23 19 17 15 14 13 13 12 12 12 12 12 11 11 10 10 11 12 13 14 15 15 16 17 17 18 18 18 18 18 20 22 23 25 28 30 30
6 6 6 5 3 2 2 1 1 1 2 3 4 5 6 7 7 8 8 8 8 8 8 8 9 10 10 11 12 12 12 12 12 14 15 14 13 12 10 10 12 13 16 17 18 20 21 20 18 17 16 14 12 11 11 11 11 11 11 11 10 10 9 10 11 12 13 14 14 15 15 17 18 18 19 21 23 24 26 27 27 27 27 26 27
6 7 8 6 6 6 5 4 4 3 2 2 3 4 5 7 7 8 8 9 9 9 9 10 10 11 11 12 13 13 13 12 12 14 16 15 14 12 10 10 11 11 11 12 14 15 15 14 15 15 13 11 9 10 10 10 11 11 10 9 9 9 10 11 12 12 13 14 15 16 18 19 21 23 24 25 27 27 27 27 25 24 23 20 20
5 6 7 6 6 7 6 6 6 6 6 7 7 7 7 8 8 8 9 9 9 10 10 11 11 12 13 13 13 13 13 12 11 12 14 13 12 12 12 12 13 14 14 15 14 14 13 12 11 11 9 9 10 11 11 11 11 10 9 8 9 11 12 13 14 15 16 17 18 19 20 20 21 22 22 21 20 19 19 20 20 20 20 17 17
7 8 7 6 6 7 7 8 9 9 10 10 9 9 9 9 10 11 12 12 11 10 10 10 11 11 12 12 12 11 11 10 9 9 10 9 10 12 13 14 16 16 15 15 13 11 10 9 7 7 7 8 9 9 9 9 8 7 7 8 10 12 13 14 15 16 16 17 16 16 16 16 16 16 16 14 13 12 13 15 16 18 20 19 19
8 8 7 7 7 8 8 9 10 10 10 10 10 10 10 10 9 10 11 11 11 10 10 10 9 9 9 9 9 9 8 7 5 5 6 7 9 11 13 15 16 16 14 13 12 10 8 7 6 5 5 5 5 6 5 5 5 6 8 10 12 12 12 12 12 12 13 14 14 15 16 15 15 15 15 14 14 13 14 15 16 18 20 21 21
7 8 8 8 8 8 8 8 9 10 11 12 13 14 14 13 13 12 11 11 10 9 8 7 7 6 6 6 6 6 5 4 2 3 4 7 9 10 12 14 15 16 15 13 11 10 9 7 6 5 4 4 3 3 4 5 7 9 11 11 11 10 10 11 11 11 13 14 15 16 16 16 15 15 16 16 17 16 17 18 18 20 21 23 23
9 9 8 8 7 6 7 8 9 11 12 13 15 16 16 16 14 12 11 11 10 8 7 7 6 6 5 5 4 4 3 3 4 4 6 7 8 9 11 12 13 14 13 11 8 7 6 5 5 4 3 3 3 5 7 9 10 10 9 8 7 7 9 10 11 12 13 14 15 16 16 16 17 17 17 18 18 18 19 19 20 21 22 24 25
7 7 6 6 6 7 8 9 10 10 10 10 11 13 13 13 11 9 9 9 9 9 9 9 8 7 6 6 5 6 6 6 6 6 7 8 8 8 10 11 10 10 9 8 7 6 6 5 4 3 2 4 5 7 8 8 8 6 5 5 6 8 9 9 10 11 12 13 14 16 17 17 18 18 18 19 19 18 19 20 21 22 24 25 27
2 3 4 5 6 7 7 8 9 9 9 9 10 11 11 11 11 11 11 11 9 10 12 12 11 10 9 9 9 9 10 9 9 8 8 8 8 8 8 9 8 7 7 7 6 6 5 3 1 1 3 4 5 5 5 5 5 5 5 6 6 7 8 9 10 11 13 14 16 17 18 19 19 20 20 20 20 20 20 21 22 23 25 26 27
3 4 4 5 5 6 7 8 9 10 10 11 12 12 12 13 13 15 16 15 12 12 14 15 14 13 12 12 12 13 13 13 12 10 9 8 8 7 7 7 7 7 6 6 5 3 2 1 2 2 1 2 2 2 3 4 4 5 5 5 7 8 9 11 12 13 14 16 17 19 20 20 20 21 21 21 22 22 23 23 23 22 23 25 26
5 4 5 5 6 7 8 9 10 11 12 13 13 12 12 13 14 15 17 17 15 15 17 18 17 15 14 15 16 17 16 15 13 11 10 9 9 9 9 8 7 6 5 4 3 2 2 2 2 3 3 2 2 3 4 4 5 5 6 7 9 10 12 13 14 14 16 17 18 20 20 21 21 22 22 23 23 24 24 24 23 22 22 23 25
5 6 6 7 7 8 9 10 11 12 13 13 14 14 13 13 13 13 14 15 14 15 18 19 18 17 17 17 18 18 17 16 14 13 12 11 11 10 8 7 5 4 2 2 2 3 4 5 6 5 4 4 4 4 4 5 6 7 8 9 10 11 12 13 14 15 17 18 19 20 21 21 22 23 23 23 24 24 24 24 24 23 23 23 24
7 8 8 9 9 10 11 12 13 14 14 14 14 14 14 15 14 14 14 15 14 15 18 20 19 18 18 18 18 18 17 16 15 15 14 13 11 9 7 5 4 3 3 4 6 7 8 8 7 5 4 5 5 5 5 7 9 11 12 12 13 13 14 15 17 18 19 19 20 21 22 23 24 23 23 23 24 24 24 24 24 24 24 23 23
9 9 10 11 11 12 13 13 14 15 15 15 14 15 15 16 17 17 18 18 18 18 19 20 21 20 20 20 21 21 20 18 16 14 13 11 9 8 7 7 6 6 8 9 9 9 8 7 6 6 6 6 6 7 9 11 12 13 14 14 15 16 17 19 20 21 21 21 22 23 24 24 24 23 22 22 23 24 24 24 24 24 24 22 22
8 8 9 9 10 12 13 15 16 17 17 16 16 16 16 17 19 20 20 20 20 20 19 19 20 20 20 20 20 20 20 19 16 13 12 11 9 8 9 10 10 11 11 10 9 8 8 7 7 7 7 7 8 10 12 13 15 15 17 18 19 20 21 21 22 22 22 22 23 23 23 23 22 22 22 22 22 23 23 23 23 23 23 22 22
7 8 9 10 12 14 16 18 19 19 19 18 17 16 16 16 16 17 19 19 19 19 20 19 18 17 18 19 18 17 17 18 16 13 12 10 10 11 12 13 12 11 9 7 7 8 7 6 6 6 7 8 10 11 13 14 16 18 20 22 22 22 22 22 23 23 22 22 22 22 22 21 22 22 22 22 22 23 23 23 23 23 23 23 22
8 9 11 12 14 15 17 18 20 21 20 18 17 17 17 14 10 10 13 15 15 15 16 16 16 17 18 18 19 19 19 18 15 12 11 12 13 14 13 12 11 9 7 6 6 7 6 5 5 6 7 9 11 12 14 15 17 19 21 22 24 25 25 25 24 24 23 23 22 22 22 22 22 22 22 22 23 23 23 23 22 22 23 23 22
9 9 10 11 12 14 15 16 18 19 19 17 16 17 19 16 12 10 9 10 10 10 12 14 16 18 17 17 19 20 19 16 15 14 14 15 15 13 10 8 7 6 6 5 6 6 5 4 5 6 8 10 11 13 14 16 18 21 22 24 25 26 26 25 24 23 23 22 22 22 23 23 23 23 23 23 23 23 22 22 22 21 21 21 21
7 7 8 8 9 10 12 14 15 16 16 15 16 18 20 19 17 17 17 17 15 15 16 16 17 18 19 19 19 19 18 18 18 17 15 14 11 9 8 8 7 6 6 6 6 5 5 4 6 7 9 10 11 13 15 17 19 21 23 24 25 25 25 24 23 23 23 22 22 23 23 23 23 23 23 23 23 22 22 22 21 20 20 20 20
5 4 4 5 6 7 8 10 11 10 10 12 15 18 18 18 19 21 24 24 23 22 23 23 21 21 21 21 21 21 21 20 19 17 14 12 11 10 10 10 9 8 8 7 6 5 5 5 6 7 8 9 11 13 16 19 21 22 23 24 25 25 26 25 24 23 23 23 24 24 24 24 24 23 23 23 22 22 21 21 21 20 20 20 20
4 3 3 3 3 3 3 3 4 5 8 11 14 16 18 19 21 23 25 26 25 24 23 24 24 23 22 22 22 22 20 19 17 14 12 12 12 12 12 12 12 11 9 8 7 6 6 6 6 7 7 9 11 15 17 19 21 22 23 24 25 25 25 25 24 24 24 24 24 24 24 24 24 23 23 23 23 22 22 22 21 21 21 21 21
6 6 6 5 5 4 4 5 6 9 11 14 17 19 22 24 25 26 26 26 26 24 22 23 24 24 23 22 21 20 18 16 14 11 10 11 12 11 10 11 11 11 10 8 6 5 4 5 6 6 7 10 12 15 17 19 21 23 23 24 25 25 24 24 23 24 24 24 24 24 24 24 24 24 23 23 23 22 22 22 22 22 22 22 22
8 9 9 7 6 7 9 10 12 13 14 16 19 21 23 24 25 26 26 26 26 24 22 22 23 24 23 21 19 18 16 13 11 11 12 13 13 11 10 10 10 9 9 7 5 4 4 5 5 6 7 10 13 15 18 20 22 23 24 25 25 25 24 24 24 24 24 24 24 24 24 24 25 24 23 23 23 22 22 22 22 21 21 21 21
9 10 8 7 8 10 11 11 10 10 11 12 14 17 19 21 22 24 24 24 24 23 22 21 21 21 20 19 18 16 13 11 12 14 15 14 13 11 11 10 9 8 8 6 4 4 5 5 4 5 8 11 14 17 19 20 22 24 24 25 26 25 24 24 24 24 24 24 25 25 25 24 24 24 23 22 22 22 22 22 21 21 21 20 20
10 8 6 5 8 10 9 8 7 7 8 9 10 11 14 17 19 20 21 21 21 20 19 18 17 17 17 17 15 13 13 14 16 17 16 15 14 12 10 9 8 7 7 5 4 5 5 3 3 6 9 12 15 17 19 21 23 24 25 25 26 26 25 25 25 25 25 25 25 25 24 24 24 23 23 23 22 22 22 22 22 22 21 21 21
9 8 6 7 10 11 9 7 5 4 5 6 7 9 11 13 15 16 17 17 18 17 16 14 14 14 14 14 12 12 16 20 19 17 16 15 14 11 9 8 7 7 5 4 4 5 4 3 4 7 10 12 15 17 20 23 24 24 25 26 26 26 26 26 26 26 26 26 26 26 25 25 24 23 23 24 23 23 23 23 22 22 21 21 21
8 7 7 9 10 9 6 3 3 4 6 7 9 11 12 12 13 14 14 14 15 14 13 12 12 11 11 12 14 18 21 21 18 16 15 14 12 10 9 8 7 6 5 5 5 6 5 4 6 8 10 13 16 17 20 23 24 24 24 25 25 26 26 26 26 27 27 26 27 27 26 26 25 24 24 24 23 23 22 22 22 21 20 20 19
9 8 9 9 9 7 5 4 6 8 10 11 13 15 16 16 16 16 15 14 14 14 14 14 14 13 15 17 19 21 19 17 16 15 14 12 11 10 9 8 7 6 5 5 6 5 4 5 7 9 11 14 15 16 19 22 23 22 22 23 24 25 26 27 28 28 27 27 27 27 26 26 25 24 24 23 23 22 22 21 21 20 19 18 18
11 11 10 9 9 9 10 10 11 12 13 13 14 15 17 19 19 18 16 16 16 16 16 17 18 20 20 20 20 18 16 15 14 13 12 11 10 8 8 8 7 5 4 5 5 4 3 6 8 10 12 13 13 15 19 22 22 21 21 21 22 24 25 27 28 28 28 28 28 27 26 26 25 24 24 24 23 23 22 21 20 19 18 17 16
11 11 11 11 12 13 13 13 12 13 16 17 18 18 19 20 20 18 17 17 17 18 19 21 22 22 21 19 17 16 15 14 13 12 10 9 7 7 8 9 7 5 5 6 5 2 4 8 10 12 13 13 13 16 20 22 21 20 20 20 21 23 25 26 27 27 27 27 27 26 25 25 25 24 24 24 23 22 21 19 18 17 15 14 13
12 12 13 14 14 15 15 15 16 16 17 19 19 19 19 18 17 17 16 17 18 19 21 21 21 21 19 18 17 16 15 14 12 11 9 7 6 6 8 8 7 6 7 6 3 2 6 9 11 11 12 12 14 18 21 21 20 20 20 19 19 21 23 24 25 25 26 26 25 24 24 24 24 24 24 23 22 21 19 17 16 14 13 11 9
12 13 14 15 16 17 18 18 18 19 19 19 19 19 19 19 19 19 19 19 20 21 21 20 20 19 18 17 16 15 13 12 10 9 7 5 3 4 7 7 7 8 7 4 2 5 9 10 9 9 11 13 15 19 20 19 19 19 20 18 18 20 22 23 23 23 25 25 24 23 23 23 22 23 23 22 21 20 18 16 15 14 12 10 7
14 14 16 17 18 18 18 19 19 20 21 21 22 22 22 22 22 21 21 20 20 20 19 19 18 17 16 16 14 13 12 10 8 7 6 4 2 3 7 8 8 6 5 3 3 6 8 8 8 9 11 14 16 19 19 18 18 18 19 18 18 18 20 22 22 22 24 25 24 22 22 22 21 21 21 20 19 18 17 16 14 13 11 10 7
17 17 18 19 19 19 19 19 20 21 21 22 23 23 23 23 22 21 21 20 19 18 18 17 16 15 15 14 13 11 10 9 7 6 5 3 2 5 8 9 6 4 3 2 4 6 6 6 7 9 12 14 17 18 18 17 18 18 18 18 17 17 19 20 20 20 22 24 24 23 22 21 20 20 19 18 18 16 15 14 13 11 10 8 6
19 19 20 20 20 20 20 21 21 21 21 22 22 22 22 22 21 20 19 18 17 16 15 13 13 12 12 11 11 10 9 8 7 5 3 2 2 5 7 7 4 3 2 2 3 4 4 5 7 10 12 14 16 16 16 17 17 18 18 18 17 16 17 20 20 20 21 22 23 23 22 21 20 19 18 17 17 16 14 13 11 10 9 7 6
20 20 20 20 20 20 20 20 20 20 20 20 20 19 19 19 18 17 16 15 15 13 12 11 10 9 8 8 8 8 7 6 4 2 1 2 3 6 6 4 3 2 1 1 2 3 4 5 7 9 12 14 16 15 15 16 17 17 18 18 16 15 17 19 21 21 21 21 22 22 22 21 20 19 18 17 16 15 14 12 10 9 8 7 6
Wind_Direction
185 182 179 174 173 178 183 187 189 194 209 216 214 212 212 211 211 208 204 204 202 198 196 194 195 196 194 191 189 185 181 179 185 193 198 211 221 224 234 241 238 240 237 248 264 208 190 203 186 14 339 150 117 29 21 26 20 19 19 19 23 15 358 355 330 311 325 336 338 343 347 347 348 351 349 349 352 353 352 352 351 347 344 341 337
183 184 183 178 172 175 180 187 192 198 211 218 216 214 213 212 212 211 207 205 206 204 202 201 203 205 203 202 199 197 196 193 195 202 204 210 218 221 224 229 234 239 236 237 245 233 211 216 229 266 270 226 232 315 2 33 25 26 37 34 26 29 21 6 356 334 326 329 333 338 341 342 344 347 348 348 348 348 347 349 349 347 343 340 337
179 187 189 187 183 179 181 189 193 196 204 210 211 210 207 206 209 212 211 210 210 209 208 207 207 209 211 211 207 204 206 209 211 215 218 218 222 224 226 229 231 235 237 236 237 236 229 225 233 245 248 254 297 299 264 21 10 17 30 28 19 18 15 7 3 356 335 327 328 333 337 338 338 341 344 344 344 344 343 342 342 341 340 338 337
180 187 189 186 182 178 176 177 182 189 194 193 196 200 196 196 205 212 210 207 208 210 212 214 213 212 213 214 213 211 212 217 221 223 226 227 228 229 230 233 234 235 237 236 235 234 233 230 232 233 232 240 273 279 249 303 328 335 344 345 345 345 347 350 352 352 343 330 325 326 331 332 333 339 342 340 339 341 340 337 336 336 336 338 339
181 183 182 176 171 175 176 174 181 195 197 193 199 207 204 205 217 225 218 206 201 203 210 215 217 217 217 217 215 215 216 221 226 230 232 231 231 232 234 236 238 237 236 235 233 232 232 233 232 229 229 232 245 258 249 261 288 300 310 317 324 329 331 331 333 334 333 331 325 321 323 328 330 334 340 339 337 336 332 328 328 329 326 326 328
174 178 176 170 173 196 209 209 214 227 224 211 218 226 225 222 224 232 237 229 214 209 211 215 217 220 223 221 219 221 224 228 231 233 235 235 235 236 237 239 241 241 240 237 234 233 232 233 232 230 231 234 238 243 240 247 268 282 295 306 315 322 325 324 322 322 323 325 325 322 324 328 331 332 335 337 338 337 333 327 322 322 323 321 319
167 171 173 178 190 207 219 223 225 233 237 235 241 241 235 232 231 233 238 236 228 226 230 228 224 223 226 228 229 233 236 238 238 236 235 238 240 240 240 242 244 244 245 243 240 237 234 230 229 228 229 234 238 236 239 252 266 277 288 297 306 319 324 322 320 322 325 326 327 328 328 328 330 332 334 336 337 339 341 337 328 325 327 326 322
154 154 160 176 194 212 225 229 231 239 244 248 257 255 246 242 241 236 235 237 239 241 242 238 233 229 230 236 243 245 244 243 242 241 240 241 246 249 246 244 244 244 245 245 243 241 237 232 228 226 224 228 234 236 240 253 265 273 280 284 298 317 323 321 321 326 330 330 330 332 330 327 330 335 337 340 341 338 340 339 330 327 329 326 324
141 145 144 149 168 196 211 208 207 217 235 245 248 250 250 247 241 235 237 245 250 251 250 248 246 246 248 252 256 255 252 249 248 248 247 248 255 261 256 248 246 244 243 243 241 239 237 234 229 224 220 220 224 229 233 244 260 268 272 278 297 315 318 316 322 327 328 328 328 331 331 327 330 335 335 337 338 332 330 330 326 326 328 324 323
125 139 140 140 149 165 177 179 185 198 219 238 239 240 247 249 247 248 249 254 259 259 260 260 260 262 264 264 261 258 256 255 255 256 256 257 260 262 260 255 250 246 243 243 240 236 233 232 228 222 218 218 220 222 224 231 243 253 260 273 296 310 311 311 317 320 320 321 322 326 327 322 325 329 327 326 327 326 325 325 323 323 326 325 322
107 118 121 125 136 151 171 182 195 209 212 219 225 229 247 259 274 284 274 281 287 283 279 275 273 275 278 275 268 263 262 262 262 263 263 263 261 260 260 258 253 248 246 244 239 233 228 227 224 217 214 216 218 219 223 230 236 242 250 266 286 297 299 303 307 309 310 313 316 319 318 314 318 322 322 322 325 323 320 319 320 321 323 323 317
99 98 98 104 110 116 135 147 145 142 137 126 117 107 87 74 69 60 49 35 18 0 336 313 302 295 289 284 279 276 276 278 275 271 268 265 262 260 259 256 250 248 246 242 237 231 225 219 214 211 211 213 215 217 222 229 235 242 254 268 279 285 288 289 292 296 302 307 310 311 310 310 314 318 321 323 321 316 313 314 316 318 316 311 303
84 99 109 101 93 89 105 115 105 112 124 115 101 88 70 55 48 36 24 17 8 358 352 344 339 333 319 306 295 286 283 284 283 280 277 273 267 263 262 259 254 250 247 241 236 230 223 214 208 206 207 209 212 215 219 225 234 245 259 269 273 274 277 279 280 286 295 302 303 303 306 310 311 312 315 315 312 311 313 313 314 314 310 303 299
41 73 140 127 100 68 18 331 10 52 132 136 107 52 12 2 7 4 360 358 353 346 342 338 339 338 334 328 319 307 296 284 275 273 276 278 272 264 263 265 263 257 251 244 238 232 223 213 204 199 200 205 210 211 216 225 237 250 260 266 266 266 267 271 276 285 294 298 298 298 302 304 304 305 306 306 308 311 313 313 313 312 307 301 298
33 38 30 48 129 271 299 288 279 266 250 265 289 309 320 323 326 327 331 336 337 336 336 333 330 326 322 320 318 318 314 297 276 264 265 272 272 264 259 260 261 258 252 246 239 229 218 209 202 200 203 209 210 211 219 228 240 251 259 260 258 256 257 266 274 282 289 291 291 292 293 294 295 296 297 298 300 301 303 304 304 304 303 301 299
34 31 29 40 56 41 19 1 333 274 244 258 264 274 290 294 294 298 303 306 311 316 318 318 318 315 313 312 313 314 314 309 289 271 264 266 267 265 257 249 247 244 241 236 227 216 210 207 203 201 202 202 204 213 226 239 250 255 253 248 247 247 253 265 273 278 283 286 287 287 286 287 289 290 292 295 297 299 301 299 299 300 300 299 297
32 26 24 29 32 26 25 27 29 29 11 326 291 283 284 280 278 278 280 285 292 300 306 309 308 307 306 306 308 310 311 311 301 282 269 262 259 256 244 227 219 210 201 196 191 187 187 191 191 187 188 195 211 230 243 249 252 250 244 241 248 256 264 269 273 276 279 280 281 282 282 284 286 288 292 294 295 298 300 300 301 301 299 296 292
358 359 359 357 356 359 358 358 1 356 346 340 331 319 306 296 290 283 279 282 286 290 296 300 299 299 302 303 306 309 307 307 301 284 269 260 252 241 223 203 188 174 163 160 163 167 169 177 188 194 203 223 236 241 242 242 241 244 250 261 270 276 281 283 283 284 283 283 284 284 285 287 289 291 295 298 300 302 302 303 307 303 296 291 290
318 328 334 338 340 341 339 335 335 334 329 326 326 324 317 308 302 293 284 279 278 280 283 287 290 294 298 302 307 310 309 307 299 279 262 250 237 222 207 189 174 167 166 165 166 173 180 188 201 212 220 228 231 232 234 239 248 262 276 287 293 294 296 296 296 296 296 296 298 299 300 301 302 303 306 311 318 321 314 311 311 302 293 289 290
295 300 303 313 320 323 324 323 323 323 320 317 318 321 319 317 313 305 291 275 265 264 264 267 275 281 287 295 300 305 310 310 298 271 244 226 215 205 196 184 171 162 163 165 163 163 168 173 178 187 201 211 220 231 245 262 282 297 305 307 307 307 306 305 306 307 307 309 311 312 313 315 313 311 310 310 312 313 309 307 305 298 292 288 286
257 263 273 289 299 306 315 321 320 317 313 309 309 309 310 309 306 306 299 279 261 249 243 244 253 260 267 279 285 289 294 290 258 222 207 200 199 196 187 178 170 161 153 150 148 146 148 157 161 168 191 214 232 260 285 304 311 313 312 310 309 310 311 311 312 311 310 311 313 313 315 316 315 314 313 310 308 306 304 303 301 297 293 289 285
251 255 264 275 283 294 308 314 312 308 305 304 302 301 301 300 298 299 294 276 256 236 225 226 230 234 238 246 251 245 235 223 201 186 179 173 175 179 170 160 161 161 153 144 143 147 151 161 169 181 209 238 269 296 309 314 315 312 308 304 305 310 310 309 309 310 310 312 314 315 316 316 314 313 312 310 308 308 306 304 302 299 295 291 288
255 260 266 271 277 285 294 299 300 296 295 297 298 298 298 296 295 301 303 285 257 232 221 217 218 219 212 202 199 197 193 191 183 173 167 160 157 161 160 156 160 167 164 159 162 164 164 169 181 204 255 293 307 313 314 314 314 309 301 297 300 305 305 305 307 309 311 313 313 313 314 314 311 309 309 309 309 309 308 306 303 299 297 295 293
260 278 287 286 282 279 278 279 279 277 281 291 298 298 298 296 295 299 306 304 274 236 222 215 211 209 201 190 186 185 182 178 174 173 176 175 168 166 166 165 170 180 183 177 171 166 163 165 177 310 324 320 315 314 317 317 315 308 298 293 296 302 307 311 314 314 312 310 309 308 309 309 306 303 304 306 307 306 304 303 301 298 297 296 295
278 289 292 282 269 261 259 260 262 266 274 283 288 289 289 290 290 289 292 296 283 249 226 215 209 203 195 188 184 181 179 176 173 173 178 179 172 168 171 172 176 181 179 166 153 140 119 64 26 10 345 329 327 336 344 339 330 319 308 306 310 314 317 319 319 314 308 306 305 305 305 305 304 303 303 303 302 301 301 301 298 296 295 294 293
274 273 265 257 253 254 261 266 269 272 276 277 278 279 278 278 280 280 281 282 273 249 225 212 207 201 196 192 186 179 176 176 174 170 171 175 173 171 172 171 168 166 154 136 115 74 60 85 113 119 109 76 43 24 11 359 348 337 329 325 324 323 323 323 320 313 308 308 308 306 305 306 305 303 301 299 297 297 299 298 296 294 294 294 292
257 249 247 252 253 256 263 269 272 273 273 272 271 271 270 270 269 267 265 264 257 238 219 210 204 199 194 189 182 176 174 175 174 171 170 172 170 167 165 157 148 141 127 105 95 100 114 119 116 106 83 52 34 22 11 359 348 340 334 330 327 325 322 320 317 314 312 311 309 307 307 307 304 302 300 297 295 296 296 294 293 293 295 295 292
242 245 253 258 261 264 268 272 273 273 273 273 274 272 270 267 262 256 253 253 247 231 216 210 208 206 201 190 178 175 179 181 178 175 174 171 167 162 155 145 135 127 117 115 116 119 121 114 103 86 56 30 18 5 352 344 338 334 330 327 325 322 322 322 320 319 318 315 311 309 308 306 304 301 299 296 294 294 294 294 292 292 295 294 289
237 244 251 255 259 264 267 269 272 272 273 275 276 273 269 264 259 255 255 254 251 242 229 221 218 218 213 198 184 182 185 184 179 175 174 171 168 162 148 135 127 121 120 121 121 119 115 102 81 57 34 20 9 360 352 346 340 336 333 332 330 329 330 329 326 324 321 317 312 308 306 304 302 299 296 293 292 292 294 293 292 291 291 287 281
232 241 247 256 264 268 272 274 275 275 275 274 271 266 263 260 256 253 251 249 247 244 239 234 230 226 216 202 195 195 191 181 172 168 166 162 159 151 136 126 124 123 122 122 119 110 97 79 57 40 28 18 9 2 356 351 347 343 340 338 335 333 331 328 325 322 319 313 308 304 301 299 297 296 293 290 289 291 291 290 288 286 283 278 275
252 260 267 275 279 280 281 280 279 278 276 272 264 254 248 246 248 245 240 238 238 236 235 233 227 218 208 199 196 194 184 171 164 163 163 159 154 146 134 126 122 119 118 123 117 100 79 62 50 38 26 16 8 2 358 354 350 346 341 336 333 330 326 323 322 320 315 310 306 302 298 296 294 293 291 289 288 288 288 286 284 281 276 273 272
273 276 281 283 283 284 283 282 282 280 277 270 258 242 228 219 217 219 219 221 224 228 227 220 205 196 198 196 185 171 164 162 161 160 160 156 153 147 138 129 121 113 110 119 115 95 75 62 56 41 25 16 9 4 359 354 348 344 339 334 330 328 324 321 320 317 312 308 305 302 299 296 293 291 289 288 287 286 285 283 281 277 275 273 271
274 277 281 282 283 285 284 284 282 279 274 267 251 231 215 199 181 165 166 180 192 200 202 199 189 180 179 178 168 159 156 157 154 150 149 151 153 153 149 144 137 123 113 118 115 101 88 76 58 40 26 15 7 1 355 349 344 340 337 333 329 325 322 321 318 314 309 306 304 301 298 296 293 291 289 287 285 283 281 280 279 277 274 272 271
271 272 276 278 279 283 282 280 280 278 272 260 240 222 209 196 180 162 145 137 139 146 152 158 159 155 152 154 154 151 149 146 142 141 143 147 154 161 163 159 150 134 124 124 119 108 100 82 56 37 21 9 3 357 350 343 338 335 332 330 327 324 322 320 317 313 309 307 303 300 298 296 294 291 288 286 284 281 279 278 278 276 273 271 271
252 254 261 262 263 271 276 277 277 273 256 233 217 207 198 184 169 156 144 134 130 131 135 139 142 144 146 147 146 143 140 138 138 138 137 137 141 146 145 142 138 133 131 130 123 113 99 75 49 29 14 5 360 352 344 338 335 333 332 330 326 323 321 319 315 312 309 306 303 301 299 298 295 292 289 287 284 282 280 279 278 276 274 273 272
192 189 194 200 212 227 243 249 241 223 203 191 186 180 171 157 144 137 133 131 130 130 133 137 139 141 142 141 139 138 137 138 138 135 128 129 137 141 137 134 132 131 130 127 120 108 89 61 39 26 15 3 354 348 343 340 339 338 335 329 322 318 316 314 311 309 308 306 304 303 302 300 298 296 293 289 285 283 282 280 279 277 276 274 273
167 158 150 143 142 144 141 143 149 151 151 149 147 144 140 135 132 131 130 131 133 134 136 138 138 137 138 140 141 143 144 143 139 130 123 131 142 142 136 131 130 130 127 121 111 97 77 56 41 29 12 357 351 351 350 349 346 341 336 329 321 314 312 312 311 311 311 309 308 307 305 303 302 300 295 290 286 285 283 281 280 279 277 276 275
160 145 132 125 125 123 117 116 119 118 118 123 127 128 129 130 132 134 136 137 139 140 141 142 142 142 144 147 151 154 154 150 141 133 133 140 145 142 135 131 130 129 124 114 101 90 81 68 50 27 5 357 359 359 355 350 345 340 336 331 323 316 315 317 318 318 317 314 312 311 309 306 304 302 297 291 287 286 285 283 281 279 277 277 274
145 139 126 116 121 123 118 113 108 100 99 109 119 125 131 135 137 139 141 141 143 145 146 148 150 151 153 158 163 166 165 158 147 142 142 143 144 141 138 135 131 126 121 115 104 95 89 77 51 20 9 8 8 3 355 348 344 340 336 331 324 320 321 322 322 322 320 318 316 315 312 309 307 305 301 296 291 289 287 285 283 279 277 275 273
144 139 127 121 134 139 133 120 107 95 97 111 123 129 134 138 141 143 145 146 147 150 153 155 158 161 165 170 174 177 171 159 150 146 144 142 140 139 138 134 129 127 126 121 109 102 98 88 48 22 16 13 8 360 352 348 344 340 335 331 326 324 326 328 326 324 323 323 321 319 317 315 313 312 309 305 300 297 292 289 286 283 280 277 276
141 131 127 136 147 152 143 126 119 117 117 125 136 140 141 144 147 149 151 153 155 156 159 162 164 168 173 177 178 172 162 153 148 146 144 142 140 138 133 128 128 131 129 118 116 125 123 90 38 20 14 8 360 353 350 349 346 340 336 333 330 329 330 332 332 330 328 328 327 326 325 324 322 318 315 311 309 305 300 295 292 288 284 282 281
139 137 144 151 158 166 167 162 180 186 173 164 163 161 158 156 157 160 166 170 171 168 166 163 163 165 168 166 160 156 153 149 147 146 143 140 139 135 130 130 133 129 115 106 118 128 115 63 29 13 5 360 352 348 348 349 345 341 338 336 334 332 332 334 335 335 334 333 333 333 332 331 328 324 320 317 315 311 307 302 299 295 290 288 287
138 139 146 155 168 177 174 163 159 161 165 174 181 183 182 178 175 177 179 175 167 160 153 149 147 147 148 150 151 151 149 146 145 143 140 138 140 138 137 142 140 129 116 116 122 118 83 33 15 5 0 355 349 346 348 349 347 344 342 341 338 337 336 336 336 338 338 336 336 336 335 334 332 329 326 325 323 319 315 311 307 303 298 295 294
138 137 139 146 148 134 120 122 131 134 138 149 161 172 177 175 172 169 163 150 140 137 136 136 138 139 139 143 147 147 144 142 142 141 139 140 141 142 149 155 152 146 147 143 132 112 39 6 1 358 356 353 349 348 350 352 352 350 347 346 344 343 342 340 339 341 342 340 338 337 338 338 338 336 334 333 331 327 324 321 318 314 310 305 301
141 143 142 142 139 130 123 129 135 131 127 128 130 137 146 150 150 149 146 137 131 129 128 130 133 135 137 140 143 142 140 141 141 139 138 135 132 141 157 164 164 161 152 140 128 90 4 358 357 354 353 353 353 351 351 354 355 353 351 350 348 346 346 345 345 347 349 345 341 340 341 342 343 341 340 339 338 335 332 331 329 326 322 316 310
140 145 143 139 137 133 132 135 134 128 122 121 123 127 132 136 138 140 141 137 132 129 127 128 131 133 135 137 139 138 139 140 138 135 131 122 116 137 158 165 162 153 146 139 124 23 5 5 2 358 356 356 355 352 352 355 357 355 353 353 350 348 348 349 349 352 353 350 346 345 346 346 346 347 345 345 344 342 342 341 340 337 334 331 327
142 145 142 136 131 127 126 127 127 122 118 118 120 122 125 126 128 130 131 130 127 125 124 124 125 126 128 131 133 133 133 132 129 125 121 108 103 141 162 160 151 147 148 144 80 18 15 15 13 5 1 358 354 352 353 356 358 356 355 355 353 350 350 350 351 354 356 354 351 349 349 349 350 351 351 351 350 349 349 350 350 349 347 345 350
143 140 135 130 125 122 121 121 121 118 115 114 114 116 119 122 123 123 123 123 123 123 122 122 121 121 122 124 126 126 127 125 121 116 109 90 75 127 144 142 140 144 149 127 45 25 22 22 17 6 1 358 354 352 354 358 359 357 357 357 355 352 351 351 352 355 357 357 356 354 352 352 352 353 355 355 354 353 354 355 355 358 358 356 4
136 133 129 126 123 121 121 120 119 117 115 113 112 112 114 116 118 118 119 119 119 120 121 122 121 121 120 121 122 125 126 123 116 108 98 72 69 124 134 137 141 146 137 82 36 25 24 18 5 357 356 356 353 353 357 0 0 360 0 360 357 354 353 352 354 356 358 359 359 357 355 355 355 355 357 358 357 356 358 0 1 6 9 11 19
125 125 125 123 121 120 120 119 117 116 115 114 112 110 110 111 112 114 117 117 117 118 121 122 123 125 125 125 126 127 126 123 116 103 76 27 51 109 126 136 146 146 120 47 21 18 14 0 350 350 353 354 354 356 0 3 3 3 4 3 359 356 354 354 355 358 359 360 360 359 358 359 360 359 359 1 2 0 2 5 8 13 21 32 45
117 117 118 118 118 117 116 114 113 113 112 112 111 109 108 108 108 110 113 114 114 115 117 119 122 126 132 137 139 136 131 128 125 110 53 41 82 102 114 131 154 164 169 341 352 353 345 340 343 348 351 353 354 358 3 6 7 7 8 6 2 359 358 358 358 358 360 360 360 360 0 2 4 3 2 4 6 6 5 7 12 20 31 46 62